DW9622 Weather Reports


time (UTC)temp
C
wind
direction
speed
KPH
gust
KPH
rain 1hr
cm
rain 24hr
cm
rain mn
cm
humidity
%
barometer
mb
20260503181515 22 9 0.0 3.2 0.00 0.00 0.00 48 1014.6
20260503181006 22 130 1.6 6.4 0.00 0.00 0.00 46 1014.7
20260503180507 22 281 3.2 6.4 0.00 0.00 0.00 47 1014.8
20260503180022 22 286 1.6 11.3 0.00 0.00 0.00 46 1014.8
20260503175503 22 288 4.8 11.3 0.00 0.00 0.00 47 1014.8
20260503175003 22 315 3.2 8.0 0.00 0.00 0.00 48 1014.9
20260503174519 22 29 3.2 8.0 0.00 0.00 0.00 46 1014.9
20260503174008 22 346 1.6 8.0 0.00 0.00 0.00 51 1015.1
20260503173504 21 16 4.8 8.0 0.00 0.00 0.00 48 1015.1
20260503173007 21 325 3.2 9.7 0.00 0.00 0.00 53 1015.2
20260503172504 21 312 4.8 9.7 0.00 0.00 0.00 52 1015.2
20260503172006 21 309 1.6 6.4 0.00 0.00 0.00 53 1015.2
20260503171513 21 21 1.6 8.0 0.00 0.00 0.00 52 1015.3
20260503171003 21 302 3.2 9.7 0.00 0.00 0.00 52 1015.2
20260503170509 21 344 4.8 9.7 0.00 0.00 0.00 52 1015.3
20260503151004 13 201 0.0 3.2 0.00 0.00 0.00 89 1015.8
20260503150504 13 249 0.0 3.2 0.00 0.00 0.00 90 1015.8
20260503131003 7 27 0.0 3.2 0.00 0.03 0.00 95 1015.6
20260503130508 7 27 0.0 3.2 0.00 0.03 0.00 94 1015.6
20260503110510 7 311 1.6 3.2 0.00 0.03 0.00 93 1015.6
20260503090504 8 126 0.0 3.2 0.00 0.03 0.00 92 1015.4
20260503081511 9 227 0.0 3.2 0.00 0.03 0.00 91 1015.3
20260503081006 9 227 0.0 3.2 0.00 0.03 0.00 90 1015.3
20260503080506 9 227 0.0 4.8 0.00 0.03 0.00 90 1015.4
20260503072512 10 167 0.0 0.0 0.00 0.03 0.00 88 1015.3
20260503072006 10 167 0.0 3.2 0.00 0.03 0.00 88 1015.2
20260503071527 10 167 0.0 3.2 0.00 0.03 0.00 87 1015.2
20260503071003 11 167 0.0 4.8 0.00 0.03 0.00 87 1015.2
20260503070505 11 167 0.0 4.8 0.00 0.03 0.00 87 1015.2
20260503055007 13 198 0.0 3.2 0.00 0.03 0.03 80 1014.6
20260503054519 13 198 0.0 3.2 0.00 0.03 0.03 80 1014.6
20260503054009 13 200 0.0 4.8 0.00 0.03 0.03 80 1014.6
20260503053506 13 180 3.2 3.2 0.00 0.03 0.03 80 1014.7
20260503053020 13 184 1.6 4.8 0.00 0.03 0.03 81 1014.6
20260503052506 13 194 0.0 4.8 0.00 0.03 0.03 81 1014.7
20260503052008 13 199 1.6 3.2 0.00 0.03 0.03 81 1014.7
20260503051518 13 184 1.6 4.8 0.00 0.03 0.03 81 1014.7
20260503051006 13 209 1.6 4.8 0.00 0.03 0.03 81 1014.7
20260503050507 13 194 3.2 4.8 0.00 0.03 0.03 80 1014.7
20260503050028 13 195 3.2 4.8 0.00 0.03 0.03 80 1014.7
20260503045508 13 184 3.2 4.8 0.00 0.03 0.03 81 1014.7
20260503045010 13 193 1.6 3.2 0.00 0.03 0.03 81 1014.7
20260503044516 14 199 1.6 3.2 0.00 0.03 0.03 79 1014.7
20260503044007 14 183 1.6 1.6 0.00 0.03 0.03 78 1014.6
20260503043509 15 175 1.6 3.2 0.00 0.03 0.03 77 1014.7
20260503043019 15 154 0.0 3.2 0.00 0.03 0.03 76 1014.6
20260503042506 15 154 1.6 3.2 0.00 0.03 0.03 74 1014.6
20260503042010 16 127 0.0 3.2 0.00 0.03 0.03 73 1014.5
20260503041522 16 166 0.0 3.2 0.00 0.03 0.03 72 1014.6
20260503041008 16 182 1.6 4.8 0.00 0.03 0.03 71 1014.5
20260503040508 16 160 1.6 4.8 0.00 0.03 0.03 71 1014.4
20260503040024 16 160 3.2 4.8 0.00 0.03 0.03 70 1014.4
20260503035508 17 173 3.2 4.8 0.00 0.03 0.03 70 1014.3
20260503035007 17 187 0.0 3.2 0.00 0.03 0.03 69 1014.3
20260503034533 17 223 1.6 4.8 0.00 0.03 0.03 69 1014.3
20260503034008 17 180 1.6 6.4 0.00 0.03 0.03 68 1014.2
20260503033507 17 183 3.2 6.4 0.00 0.03 0.03 68 1014.1
20260503033027 18 184 1.6 3.2 0.00 0.03 0.03 68 1014.0
20260503032510 18 195 1.6 3.2 0.00 0.03 0.03 68 1014.0
20260503032007 18 172 0.0 3.2 0.00 0.03 0.03 64 1014.0
20260503031518 19 205 1.6 6.4 0.00 0.03 0.03 64 1014.0
20260503031011 19 201 3.2 6.4 0.00 0.03 0.03 63 1014.2
20260503030507 20 179 1.6 6.4 0.00 0.03 0.03 62 1014.1
20260503030028 20 186 3.2 6.4 0.00 0.03 0.03 61 1014.0
20260503025508 20 187 1.6 4.8 0.00 0.03 0.03 59 1013.9
20260503025012 21 188 3.2 4.8 0.00 0.03 0.03 60 1013.9
20260503024526 21 195 1.6 4.8 0.00 0.03 0.03 58 1013.9
20260503024007 21 192 3.2 4.8 0.00 0.03 0.03 58 1013.9
20260503023507 21 187 1.6 4.8 0.00 0.03 0.03 57 1013.9
20260503023014 22 195 1.6 4.8 0.00 0.03 0.03 56 1013.9
20260503022509 22 161 1.6 8.0 0.00 0.03 0.03 57 1014.0
20260503022007 22 223 1.6 8.0 0.00 0.03 0.03 55 1014.0
20260503021522 22 175 3.2 9.7 0.00 0.03 0.03 55 1013.9
20260503021004 22 213 3.2 9.7 0.00 0.03 0.03 55 1014.0
20260503020507 22 173 4.8 9.7 0.00 0.03 0.03 55 1014.1
20260503020022 23 196 4.8 11.3 0.00 0.03 0.03 53 1014.1
20260503015507 23 181 6.4 11.3 0.00 0.03 0.03 50 1014.1
20260503015003 23 168 1.6 8.0 0.00 0.03 0.03 45 1014.1
20260503014508 23 228 3.2 8.0 0.00 0.03 0.03 44 1014.2
20260503014007 23 238 4.8 8.0 0.00 0.03 0.03 43 1014.1
20260503013504 23 220 3.2 6.4 0.00 0.03 0.03 46 1014.1
20260503013022 24 217 3.2 6.4 0.00 0.03 0.03 44 1014.2
20260503012508 24 236 3.2 8.0 0.00 0.03 0.03 44 1014.3
20260503012009 24 207 4.8 8.0 0.00 0.03 0.03 44 1014.2
20260503011512 24 221 3.2 6.4 0.00 0.03 0.03 45 1014.3
20260503011008 24 240 1.6 6.4 0.00 0.03 0.03 45 1014.3
20260503010510 25 215 1.6 8.0 0.00 0.03 0.03 45 1014.3
20260503010008 24 248 3.2 8.0 0.00 0.03 0.03 46 1014.3
20260503005507 24 222 6.4 11.3 0.00 0.03 0.03 45 1014.3
20260503005007 24 330 3.2 11.3 0.00 0.03 0.03 43 1014.4
20260503004525 24 248 3.2 12.9 0.00 0.03 0.03 43 1014.4
20260503004007 24 278 4.8 12.9 0.00 0.03 0.03 42 1014.4
20260503003504 25 241 3.2 11.3 0.00 0.03 0.03 43 1014.4
20260503003011 25 280 4.8 14.5 0.00 0.03 0.03 41 1014.5
20260503002504 25 280 4.8 14.5 0.00 0.03 0.03 42 1014.5
20260503002007 25 298 6.4 14.5 0.00 0.03 0.03 41 1014.5
20260503001516 25 303 4.8 12.9 0.00 0.03 0.03 45 1014.5
20260503001008 25 273 4.8 12.9 0.00 0.03 0.03 43 1014.6
20260503000507 24 280 3.2 9.7 0.00 0.03 0.03 43 1014.6
20260503000022 24 313 4.8 14.5 0.00 0.03 0.03 42 1014.6
20260502235508 24 264 6.4 14.5 0.00 0.03 0.03 43 1014.6
20260502235009 24 269 6.4 14.5 0.00 0.03 0.03 43 1014.7
20260502234518 24 214 4.8 14.5 0.00 0.03 0.03 40 1014.7
20260502234007 24 293 6.4 16.1 0.00 0.03 0.03 42 1014.7
20260502233507 24 280 9.7 16.1 0.00 0.03 0.03 40 1014.9
20260502233019 24 250 8.0 16.1 0.00 0.03 0.03 44 1014.9
20260502232505 24 238 9.7 16.1 0.00 0.03 0.03 43 1015.0
20260502232007 24 285 4.8 11.3 0.00 0.03 0.03 45 1015.0
20260502231517 23 296 4.8 11.3 0.00 0.03 0.03 47 1015.0
20260502231007 23 211 6.4 14.5 0.00 0.03 0.03 48 1015.1
20260502230509 23 287 4.8 14.5 0.00 0.03 0.03 45 1015.1
20260502230020 23 246 4.8 12.9 0.00 0.03 0.03 45 1015.2
20260502225507 23 284 4.8 12.9 0.00 0.03 0.03 45 1015.3
20260502225007 23 289 9.7 16.1 0.00 0.03 0.03 47 1015.3
20260502224525 23 269 6.4 16.1 0.00 0.03 0.03 49 1015.4
20260502224008 23 280 9.7 17.7 0.00 0.03 0.03 49 1015.6
20260502223506 23 238 6.4 17.7 0.00 0.03 0.03 51 1015.6
20260502223027 23 278 6.4 16.1 0.00 0.03 0.03 49 1015.6
20260502222508 23 254 6.4 14.5 0.00 0.03 0.03 51 1015.6
20260502222008 23 237 6.4 16.1 0.00 0.03 0.03 51 1015.8
20260502221513 23 248 8.0 16.1 0.00 0.03 0.03 51 1015.9
20260502221006 23 207 6.4 16.1 0.00 0.03 0.03 55 1015.9
20260502220509 23 277 8.0 16.1 0.00 0.03 0.03 52 1015.9
20260502220031 23 232 8.0 14.5 0.00 0.03 0.03 52 1016.0
20260502215507 23 290 6.4 17.7 0.00 0.03 0.03 53 1016.1
20260502215009 23 319 8.0 17.7 0.00 0.03 0.03 53 1016.2
20260502214513 23 303 8.0 16.1 0.00 0.03 0.03 54 1016.2
20260502214008 23 281 6.4 16.1 0.00 0.03 0.03 56 1016.2
20260502213513 22 300 8.0 16.1 0.00 0.03 0.03 53 1016.3
20260502213025 22 278 8.0 17.7 0.00 0.03 0.03 54 1016.4
20260502212508 22 231 11.3 17.7 0.00 0.03 0.03 55 1016.5
20260502212008 22 308 8.0 14.5 0.00 0.03 0.03 55 1016.4
20260502211535 22 302 4.8 14.5 0.00 0.03 0.03 60 1016.6
20260502211007 22 310 6.4 17.7 0.00 0.03 0.03 56 1016.6
20260502210507 22 305 8.0 16.1 0.00 0.03 0.03 56 1016.6
20260502210016 22 306 6.4 16.1 0.00 0.03 0.03 60 1016.7
20260502205510 22 291 9.7 16.1 0.00 0.03 0.03 57 1016.7
20260502205008 21 262 9.7 17.7 0.00 0.03 0.03 57 1016.8
20260502204521 21 226 8.0 17.7 0.00 0.03 0.03 61 1016.8
20260502204009 21 222 9.7 17.7 0.00 0.03 0.03 59 1016.8
20260502203506 21 230 8.0 20.9 0.00 0.03 0.03 59 1016.8
20260502203022 21 250 11.3 20.9 0.00 0.03 0.03 58 1016.9
20260502202507 22 214 8.0 19.3 0.00 0.03 0.03 59 1016.9
20260502202011 22 284 9.7 19.3 0.00 0.03 0.03 58 1017.0
20260502201519 22 279 6.4 17.7 0.00 0.03 0.03 58 1017.0
20260502201007 22 292 8.0 17.7 0.00 0.03 0.03 59 1017.1
20260502200510 22 296 8.0 17.7 0.00 0.03 0.03 58 1017.1
20260502200014 22 277 8.0 17.7 0.00 0.03 0.03 58 1017.1
20260502195507 22 275 9.7 14.5 0.00 0.03 0.03 57 1017.1
20260502195006 22 249 3.2 14.5 0.00 0.03 0.03 52 1017.1
20260502194520 22 313 6.4 14.5 0.00 0.03 0.03 53 1017.2
20260502194006 22 331 1.6 17.7 0.00 0.03 0.03 53 1017.2
20260502193507 22 269 8.0 17.7 0.00 0.03 0.03 54 1017.2
20260502193024 22 271 3.2 16.1 0.00 0.03 0.03 53 1017.2
20260502192510 22 285 3.2 16.1 0.00 0.03 0.03 53 1017.3
20260502192009 22 262 4.8 12.9 0.00 0.03 0.03 56 1017.3
20260502191525 22 276 3.2 12.9 0.00 0.03 0.03 52 1017.3
20260502191010 22 291 6.4 12.9 0.00 0.03 0.03 53 1017.4
20260502190508 22 9 4.8 12.9 0.00 0.03 0.03 54 1017.3
20260502190026 22 352 3.2 16.1 0.00 0.03 0.03 54 1017.4
20260502185509 21 330 6.4 16.1 0.00 0.03 0.03 53 1017.3
20260502185012 21 5 9.7 14.5 0.00 0.03 0.03 55 1017.4
20260502184521 21 352 4.8 14.5 0.00 0.03 0.03 53 1017.5
20260502184007 21 5 6.4 12.9 0.00 0.03 0.03 54 1017.5
20260502183510 21 303 3.2 12.9 0.00 0.03 0.03 58 1017.6
20260502183020 21 338 8.0 12.9 0.00 0.03 0.03 60 1017.7
20260502182509 20 360 4.8 16.1 0.00 0.03 0.03 59 1017.8
20260502182015 20 12 6.4 16.1 0.00 0.03 0.03 57 1017.7